CW0156 Weather Reports


time (UTC)temp
F
wind
direction
speed
knots
gust
knots
rain 1hr
in
rain 24hr
in
rain mn
in
humidity
%
barometer
mb
20260504001508 57 186 0.9 3.5 0.00 0.01 0.01 56 1007.5
20260504000017 57 188 0.0 3.5 0.00 0.01 0.01 57 1007.6
20260503234518 57 263 0.0 2.6 0.00 0.01 0.01 58 1007.7
20260503233004 57 296 0.9 4.3 0.00 0.01 0.01 58 1007.8
20260503231509 56 204 0.0 2.6 0.00 0.01 0.01 64 1008.0
20260503230010 55 205 0.0 1.7 0.01 0.01 0.01 66 1008.2
20260503224504 54 202 0.9 3.5 0.01 0.01 0.01 71 1008.3
20260503223003 54 237 0.0 0.9 0.01 0.01 0.01 76 1008.4
20260503221504 53 236 0.0 2.6 0.01 0.01 0.01 78 1008.3
20260503220008 54 237 0.0 3.5 0.00 0.00 0.00 76 1008.8
20260503214512 55 275 0.9 5.2 0.00 0.00 0.00 75 1009.1
20260503213007 55 242 0.9 3.5 0.00 0.00 0.00 72 1008.9
20260503211504 57 261 0.9 4.3 0.00 0.00 0.00 67 1008.6
20260503210008 59 297 2.6 7.8 0.00 0.00 0.00 61 1008.3
20260503204511 60 312 1.7 7.8 0.00 0.00 0.00 54 1008.0
20260503203020 61 277 1.7 7.0 0.00 0.00 0.00 58 1007.9
20260503201504 60 166 1.7 5.2 0.00 0.00 0.00 59 1008.1
20260503200005 59 221 1.7 5.2 0.00 0.00 0.00 57 1008.2
20260503194508 59 203 0.0 6.1 0.00 0.00 0.00 58 1008.3
20260503193030 60 180 0.9 4.3 0.00 0.00 0.00 56 1008.5
20260503191518 60 171 0.9 7.0 0.00 0.00 0.00 54 1008.8
20260503190004 58 190 1.7 6.1 0.00 0.00 0.00 56 1008.9
20260503184505 60 165 2.6 7.0 0.00 0.00 0.00 53 1009.2
20260503183008 60 257 1.7 7.8 0.00 0.00 0.00 53 1009.3
20260503181513 59 173 3.5 8.7 0.00 0.00 0.00 54 1009.4
20260503180019 59 205 5.2 10.4 0.00 0.00 0.00 55 1009.7
20260503174506 57 198 3.5 10.4 0.00 0.00 0.00 55 1009.9
20260503173024 57 165 2.6 9.6 0.00 0.00 0.00 54 1010.1
20260503171514 57 177 2.6 9.6 0.00 0.00 0.00 56 1010.4
20260503081541 39 325 0.0 2.6 0.00 0.00 0.00 74 1013.6
20260503071521 39 271 0.0 2.6 0.00 0.00 0.00 68 1013.7
20260503054526 39 227 0.0 0.9 0.00 0.00 0.00 66 1014.3
20260503053020 39 227 0.0 0.9 0.00 0.00 0.00 66 1014.3
20260503051521 39 227 0.0 0.9 0.00 0.00 0.00 65 1014.3
20260503050025 40 227 0.0 0.9 0.00 0.00 0.00 65 1014.5
20260503044513 40 227 0.0 1.7 0.00 0.00 0.00 67 1014.5
20260503043015 40 229 0.0 1.7 0.00 0.00 0.00 68 1014.5
20260503041520 40 181 0.0 2.6 0.00 0.00 0.00 70 1014.5
20260503040024 40 168 0.9 3.5 0.00 0.00 0.00 70 1014.6
20260503034528 40 177 0.0 2.6 0.00 0.00 0.00 70 1014.6
20260503033021 41 167 0.9 2.6 0.00 0.00 0.00 69 1014.7
20260503031518 41 162 0.0 3.5 0.00 0.00 0.00 69 1014.7
20260503030021 41 169 0.0 2.6 0.00 0.00 0.00 69 1014.7
20260503024526 41 166 0.0 3.5 0.00 0.00 0.00 69 1014.8
20260503023026 41 174 0.0 1.7 0.00 0.00 0.00 69 1014.9
20260503021516 42 174 0.0 1.7 0.00 0.00 0.00 68 1015.0
20260503020020 42 207 0.0 1.7 0.00 0.00 0.00 67 1015.0
20260503014524 43 261 0.0 0.9 0.00 0.00 0.00 66 1015.0
20260503013026 43 269 0.0 0.9 0.00 0.00 0.00 65 1014.9
20260503011529 44 269 0.0 0.9 0.00 0.00 0.00 64 1015.0
20260503010030 44 277 0.0 0.9 0.00 0.00 0.00 63 1014.9
20260503004528 44 278 0.0 0.9 0.00 0.00 0.00 64 1014.8
20260503003039 44 278 0.0 0.9 0.00 0.00 0.00 63 1014.7